SCP
6 6 6 6 5 4 4 4 3 2 2 2 2 2 2 2 2 2 2 2 1 1 0 0 0 0 0 1 1 1 1 0 0 0 0 0 0 0
6 6 6 6 5 4 4 4 4 3 2 2 2 2 2 2 2 2 2 2 1 1 0 0 0 0 0 1 1 1 1 0 0 0 0 0 0 0
6 7 7 6 6 5 4 4 5 4 3 2 2 3 3 3 2 2 2 2 2 1 1 0 0 0 0 1 1 1 0 0 0 0 0 0 0 0
9 9 9 8 7 6 5 5 5 5 4 3 2 2 3 3 3 3 3 3 2 2 1 1 0 0 0 0 0 0 0 0 0 0 0 0 0 0
12 12 12 11 10 8 6 5 5 5 5 3 2 2 2 2 3 3 3 3 3 2 1 1 1 0 0 0 0 0 0 0 0 0 0 0 0 0
14 14 15 14 13 11 8 6 5 6 6 4 2 2 2 2 3 3 4 4 3 3 2 1 1 1 1 0 0 0 0 0 0 0 0 0 0 0
13 14 15 14 11 9 7 5 5 6 6 4 2 1 2 2 3 3 3 3 4 4 3 3 2 2 1 1 0 0 0 0 0 0 0 0 0 0
11 12 13 10 6 4 3 2 3 4 4 3 2 1 1 2 2 2 2 3 3 4 5 4 3 3 3 2 1 0 0 0 0 0 0 0 0 0
9 10 11 8 3 1 1 1 1 2 2 2 2 2 2 2 2 2 2 2 2 4 4 4 3 3 3 3 2 1 0 0 0 0 0 0 0 0
7 8 10 8 3 2 2 2 2 2 2 1 1 2 2 2 2 2 2 2 2 3 4 4 4 3 3 3 2 1 0 0 0 0 0 0 0 0
5 6 7 5 3 2 3 3 3 3 2 2 2 2 2 2 2 2 2 2 2 3 4 5 4 4 3 3 2 1 0 0 0 0 0 0 0 0
4 4 4 3 2 2 3 3 3 3 2 2 2 2 2 2 2 2 3 3 3 4 4 5 5 5 4 3 2 2 1 1 0 0 0 0 0 0
3 3 2 1 1 1 1 1 1 2 2 2 2 3 3 2 2 3 4 4 5 5 5 5 5 5 5 4 3 3 2 2 1 0 0 0 0 0
3 2 1 0 0 0 0 0 0 1 1 1 2 2 2 3 3 3 4 5 5 5 5 5 6 6 6 6 6 5 4 4 3 2 1 1 0 0
1 1 1 0 0 0 0 0 0 1 1 1 2 2 3 3 4 4 4 5 5 5 5 6 6 7 8 8 9 8 6 5 4 4 3 2 2 1
1 1 1 1 1 1 1 1 2 3 3 3 3 2 3 3 4 4 4 4 4 4 4 5 6 7 8 9 9 9 8 6 5 5 4 3 2 2
2 3 3 3 3 3 4 5 5 5 5 4 3 2 2 2 2 2 3 3 3 3 3 4 5 5 6 7 8 8 7 6 4 4 4 4 3 2
4 5 5 4 4 4 5 6 5 5 3 2 2 1 1 1 1 1 2 2 3 2 3 3 3 3 4 4 5 5 5 5 4 3 3 3 3 2
3 4 4 3 3 3 3 3 3 2 2 2 1 1 1 1 1 1 2 2 2 2 2 2 2 2 2 2 2 3 3 3 3 3 2 2 2 3
1 2 2 2 2 2 2 1 1 2 2 2 2 2 2 2 2 1 1 2 2 1 1 1 1 1 1 1 1 1 1 2 2 2 2 2 2 2
1 1 1 1 1 1 2 2 2 2 2 2 2 2 2 2 2 1 1 1 1 1 1 1 1 1 1 1 1 1 1 1 1 1 2 2 2 2
1 0 1 1 1 1 2 2 1 1 1 1 1 1 1 1 1 1 1 1 1 1 1 1 1 1 1 1 1 1 1 1 1 1 1 1 1 1
1 1 1 1 1 1 1 1 1 1 1 1 1 1 1 1 1 1 1 1 1 1 1 1 1 1 1 1 1 1 1 1 1 1 1 1 1 1
Wind_Speed
1 1 1 1 1 1 1 1 2 2 1 1 1 2 2 3 4 3 4 6 6 5 5 5 5 5 5 4 4 4 4 4 4 3 2 1 1 0
1 1 1 0 0 0 0 0 0 1 1 1 1 2 2 3 4 2 4 8 7 6 6 5 5 5 5 4 4 4 4 4 4 3 3 2 2 2
0 1 1 0 0 0 0 0 0 1 2 1 1 2 3 3 3 3 4 4 4 7 6 5 5 4 4 4 4 4 3 3 3 3 3 2 2 1
1 1 0 0 0 0 0 0 0 1 2 1 1 1 2 3 3 3 3 4 4 7 7 6 5 4 4 3 3 3 3 2 2 2 2 2 2 1
1 1 0 1 1 0 0 0 0 0 1 2 1 1 1 2 2 2 2 2 3 5 7 6 6 5 4 4 3 3 2 2 2 2 1 2 2 1
1 1 1 1 1 1 0 0 0 0 1 2 2 1 1 1 2 2 1 1 2 3 4 6 6 6 5 5 4 3 3 2 2 1 1 1 1 1
1 2 2 3 3 2 1 1 1 0 1 1 1 1 1 1 2 2 2 2 2 2 2 3 4 3 3 4 4 4 3 2 2 1 1 1 1 1
1 1 2 3 4 4 4 3 2 0 0 1 1 1 2 1 1 1 1 1 1 2 2 2 3 4 4 3 5 6 5 4 3 3 3 2 2 2
1 1 0 2 2 1 1 1 1 0 1 1 1 2 2 2 2 2 1 2 2 2 2 2 2 2 3 4 8 8 7 6 5 5 4 4 3 3
1 1 1 1 1 1 0 1 0 1 1 2 2 2 2 1 2 2 2 1 1 1 2 2 1 1 2 2 6 8 7 7 6 5 5 4 4 3
1 1 2 2 2 2 0 1 0 1 1 0 1 2 2 2 1 0 1 1 2 2 1 2 2 1 1 2 4 7 7 7 7 6 6 5 5 4
1 2 3 2 2 1 1 1 1 2 1 1 1 2 2 2 2 1 2 2 1 1 2 2 2 1 1 1 2 3 4 6 7 7 7 6 5 3
2 2 2 2 2 1 2 2 2 3 3 2 2 2 2 1 1 2 2 2 2 2 2 2 2 2 2 2 2 3 4 3 4 4 6 7 7 5
1 1 2 3 2 2 2 3 4 4 3 2 2 2 2 2 2 2 2 2 2 2 2 2 2 2 2 2 2 2 3 3 4 4 4 5 7 7
0 1 1 3 3 3 5 5 4 3 2 2 2 2 2 2 2 2 2 2 2 3 3 2 2 2 2 2 2 2 2 2 3 3 3 3 3 4
1 2 3 5 5 4 4 4 3 3 2 2 1 1 1 1 1 1 1 2 2 2 3 3 3 3 3 3 3 2 2 2 2 2 2 2 3 3
1 2 2 2 3 3 3 3 3 3 3 2 2 1 1 1 1 1 1 1 2 2 2 2 3 3 3 3 3 3 2 2 2 2 2 2 2 2
2 3 3 3 3 3 3 2 2 2 2 2 2 2 2 2 2 1 1 2 2 2 2 2 2 2 2 2 3 3 2 2 2 2 2 2 2 2
3 3 3 3 3 3 3 3 3 3 2 2 2 2 2 2 2 2 1 2 2 2 2 2 2 2 3 3 3 3 3 2 2 1 2 2 2 2
4 3 3 3 3 3 3 2 2 2 2 2 2 2 2 2 2 2 2 2 2 2 2 2 2 2 3 3 2 2 3 2 2 2 2 2 1 1
4 3 3 2 2 2 2 2 2 2 2 2 2 2 2 2 2 2 2 2 3 3 3 2 3 4 3 2 2 2 2 3 3 2 2 2 2 2
3 3 3 3 2 1 1 1 1 1 2 2 2 2 2 3 3 3 2 2 2 2 3 2 2 2 2 2 3 3 2 2 3 2 1 2 2 2
3 3 3 2 2 2 1 2 2 2 2 2 2 2 2 2 2 2 2 2 2 2 2 2 2 1 2 2 2 2 3 3 2 2 1 3 4 4
Wind_Direction
172 178 181 198 202 221 191 189 181 178 174 178 165 146 128 112 135 144 132 131 130 123 112 104 98 90 81 81 86 83 75 63 57 47 38 15 333 313
126 62 36 278 241 220 163 201 190 173 162 169 159 150 146 132 143 148 143 139 138 136 128 121 111 101 92 83 85 87 85 80 69 58 49 52 54 54
155 137 136 75 345 291 14 44 78 113 141 153 109 128 122 129 147 172 156 151 146 147 142 136 131 120 105 91 81 81 81 82 78 71 64 58 54 53
116 101 107 94 90 311 339 7 37 107 140 151 127 121 139 155 162 180 157 156 152 156 156 153 152 145 130 116 105 91 76 70 79 84 78 72 67 70
84 77 34 34 12 22 192 250 231 150 139 157 170 163 159 162 159 170 150 149 157 157 161 164 166 162 154 143 128 108 91 78 71 73 72 71 70 81
85 79 54 41 5 320 22 287 220 200 170 167 167 160 157 188 166 172 170 174 171 173 159 163 169 173 168 159 147 135 121 112 98 87 83 78 84 105
110 88 77 71 59 39 21 30 38 48 136 144 165 162 177 184 211 201 181 169 171 169 167 170 169 181 181 176 170 162 155 152 150 147 141 153 146 131
135 138 138 118 90 71 56 43 38 59 170 163 205 209 207 211 235 219 184 187 204 183 185 205 177 180 178 179 176 175 179 182 185 186 184 189 194 179
156 218 227 102 99 92 79 49 30 58 177 184 227 235 229 220 213 220 209 211 218 196 187 220 192 182 177 177 178 185 191 194 197 199 202 205 212 208
125 90 85 82 39 23 44 67 27 351 219 217 231 248 256 248 229 216 210 216 222 218 185 227 214 193 171 169 184 190 196 200 202 206 213 219 222 226
145 103 125 113 63 16 217 173 236 303 8 88 212 217 237 256 237 227 235 203 238 241 228 219 221 198 188 179 197 198 196 200 204 208 213 222 229 236
161 130 99 116 103 43 292 263 264 285 288 250 233 215 212 207 218 209 212 219 230 235 219 211 211 204 212 191 192 195 205 212 212 217 221 225 227 221
192 156 142 142 161 253 265 266 262 279 274 251 223 206 191 186 201 202 209 220 223 241 226 199 220 219 207 203 204 202 197 197 204 222 226 229 224 212
260 141 157 182 211 249 248 254 273 284 267 253 212 211 204 204 206 209 208 216 226 232 242 229 230 227 229 239 234 203 207 203 195 200 207 217 221 225
319 98 211 231 246 250 236 240 255 262 260 257 240 230 207 201 204 208 207 205 231 242 232 233 236 237 233 246 239 218 214 213 197 196 198 198 203 207
223 216 229 237 245 251 247 238 234 246 256 258 256 244 221 205 206 212 219 204 224 240 228 226 233 230 241 247 237 237 217 210 207 202 196 208 211 204
202 228 231 225 230 232 231 226 228 224 231 244 246 252 247 236 227 211 223 225 233 240 232 227 227 222 240 252 254 239 230 230 209 199 199 219 232 215
192 228 230 230 230 227 228 223 222 227 238 247 237 228 238 240 242 233 227 238 245 249 237 225 223 235 261 271 243 244 243 246 229 199 196 212 237 227
212 236 240 240 240 230 221 222 221 215 219 235 243 247 252 245 235 231 235 250 255 257 258 244 229 223 242 261 260 221 223 234 238 213 208 208 222 231
227 238 244 247 245 233 225 228 229 218 214 224 227 236 244 248 247 240 228 240 257 266 271 266 237 225 235 251 257 248 210 212 218 230 233 219 209 186
223 236 245 243 243 240 232 229 228 226 221 227 232 235 239 244 249 251 247 253 255 255 253 249 237 228 233 238 240 225 199 199 196 200 220 214 219 207
234 231 235 241 235 227 215 205 230 240 236 233 237 236 239 245 250 250 248 246 249 262 273 270 246 239 242 240 247 228 204 184 204 220 239 207 204 219
243 247 242 226 209 190 199 224 234 238 237 241 243 242 248 255 261 261 258 255 252 263 272 275 277 261 253 251 258 247 210 192 179 178 241 242 219 211